When you browse on this site, cookies collect data to enhance your experience and personalize the content and advertising you see.
Visit our Privacy Policy to learn more. By continuing to use the site, you agree to this use of cookies and data.
  • In United Kingdom
  • List of Countries
  • For 7 days
  • Water Temperature
  • Satellite Maps
  • Weather Map
  • Weather Widgets
  • user-avatar
    Login

    Hourly Weather Middle River

    Today, 25 June, Tuesday

    Time Temperature Precipitation Wind Pressure Humidity
    00:00 +26°C° 1.1 mm 3 mps 755 mmHg 88%
    01:00 +26°C° 1.1 mm 3 mps 755 mmHg 88%
    02:00 +26°C° 0.2 mm 3 mps 755 mmHg 88%
    03:00 +26°C° 0.2 mm 3 mps 755 mmHg 87%
    04:00 +26°C° 0.2 mm 2 mps 754 mmHg 86%
    05:00 +26°C° 0 mm 3 mps 755 mmHg 84%
    06:00 +26°C° 0 mm 3 mps 756 mmHg 82%
    07:00 +27°C° 0 mm 4 mps 756 mmHg 79%
    08:00 +27°C° 0 mm 4 mps 757 mmHg 74%
    09:00 +28°C° 0 mm 4 mps 757 mmHg 70%
    10:00 +29°C° 0 mm 5 mps 757 mmHg 65%
    11:00 +30°C° 0 mm 4 mps 757 mmHg 61%
    12:00 +30°C° 0 mm 4 mps 757 mmHg 57%
    13:00 +32°C° 0 mm 4 mps 757 mmHg 53%
    14:00 +32°C° 0 mm 4 mps 757 mmHg 52%
    15:00 +33°C° 0 mm 4 mps 757 mmHg 51%
    16:00 +33°C° 0 mm 4 mps 757 mmHg 50%
    17:00 +32°C° 0 mm 4 mps 757 mmHg 53%
    18:00 +29°C° 0 mm 4 mps 758 mmHg 55%
    19:00 +28°C° 0 mm 4 mps 758 mmHg 57%
    20:00 +28°C° 0 mm 4 mps 759 mmHg 58%
    21:00 +27°C° 0 mm 4 mps 759 mmHg 59%
    22:00 +26°C° 0 mm 4 mps 760 mmHg 60%
    23:00 +26°C° 0 mm 4 mps 760 mmHg 62%

    Tomorrow, 26 June, Wednesday

    Time Temperature Precipitation Wind Pressure Humidity
    00:00 +25°C° 0 mm 4 mps 760 mmHg 63%
    01:00 +23°C° 0 mm 4 mps 761 mmHg 64%
    02:00 +23°C° 0 mm 4 mps 761 mmHg 65%
    03:00 +22°C° 0 mm 4 mps 761 mmHg 67%
    04:00 +21°C° 0 mm 3 mps 761 mmHg 68%
    05:00 +22°C° 0 mm 3 mps 762 mmHg 68%
    06:00 +24°C° 0 mm 3 mps 762 mmHg 67%
    07:00 +25°C° 0 mm 2 mps 763 mmHg 67%
    08:00 +26°C° 0 mm 2 mps 763 mmHg 62%
    09:00 +28°C° 0 mm 2 mps 763 mmHg 57%
    10:00 +30°C° 0 mm 2 mps 763 mmHg 52%
    11:00 +30°C° 0 mm 2 mps 763 mmHg 50%
    12:00 +31°C° 0 mm 2 mps 763 mmHg 47%
    13:00 +32°C° 0 mm 2 mps 763 mmHg 45%
    14:00 +32°C° 0 mm 2 mps 762 mmHg 46%
    15:00 +32°C° 0 mm 2 mps 762 mmHg 47%
    16:00 +32°C° 0 mm 2 mps 761 mmHg 47%
    17:00 +31°C° 0 mm 2 mps 761 mmHg 51%
    18:00 +30°C° 0 mm 2 mps 762 mmHg 54%
    19:00 +29°C° 0 mm 2 mps 762 mmHg 58%
    20:00 +28°C° 0 mm 1 mps 762 mmHg 59%
    21:00 +27°C° 0 mm 1 mps 763 mmHg 61%
    22:00 +26°C° 0 mm 1 mps 763 mmHg 63%
    23:00 +26°C° 0 mm 1 mps 763 mmHg 64%

    Day after tomorrow, 27 June, Thursday

    Time Temperature Precipitation Wind Pressure Humidity
    00:00 +26°C° 0 mm 1 mps 763 mmHg 65%
    01:00 +26°C° 0 mm 1 mps 763 mmHg 67%
    02:00 +25°C° 0 mm 1 mps 763 mmHg 69%
    03:00 +25°C° 0 mm 1 mps 763 mmHg 72%
    04:00 +25°C° 0 mm 2 mps 764 mmHg 74%
    05:00 +25°C° 0 mm 2 mps 764 mmHg 74%
    06:00 +26°C° 0 mm 2 mps 764 mmHg 73%
    07:00 +27°C° 0 mm 2 mps 764 mmHg 73%
    08:00 +28°C° 0 mm 2 mps 764 mmHg 67%
    09:00 +30°C° 0 mm 2 mps 764 mmHg 61%
    10:00 +31°C° 0 mm 3 mps 765 mmHg 55%
    11:00 +33°C° 0 mm 3 mps 764 mmHg 52%
    12:00 +33°C° 0 mm 3 mps 764 mmHg 50%
    13:00 +34°C° 0 mm 3 mps 764 mmHg 47%
    14:00 +34°C° 0 mm 3 mps 764 mmHg 47%
    15:00 +34°C° 0 mm 3 mps 764 mmHg 47%
    16:00 +34°C° 0 mm 3 mps 763 mmHg 47%
    17:00 +32°C° 0 mm 2 mps 763 mmHg 51%
    18:00 +31°C° 0 mm 1 mps 764 mmHg 54%
    19:00 +30°C° 0 mm 1 mps 764 mmHg 58%
    20:00 +29°C° 0 mm 1 mps 764 mmHg 60%
    21:00 +28°C° 0 mm 1 mps 764 mmHg 63%
    22:00 +27°C° 0 mm 1 mps 764 mmHg 65%
    23:00 +27°C° 0 mm 1 mps 764 mmHg 65%

    28 June, Friday

    Time Temperature Precipitation Wind Pressure Humidity
    00:00 +26°C° 0 mm 1 mps 765 mmHg 66%
    01:00 +26°C° 0 mm 1 mps 765 mmHg 66%
    02:00 +26°C° 0 mm 1 mps 765 mmHg 66%
    03:00 +26°C° 0 mm 2 mps 765 mmHg 65%
    04:00 +25°C° 0 mm 2 mps 765 mmHg 65%
    05:00 +26°C° 0 mm 2 mps 765 mmHg 64%
    06:00 +26°C° 0 mm 2 mps 766 mmHg 64%
    07:00 +27°C° 0 mm 2 mps 766 mmHg 64%
    08:00 +28°C° 0 mm 1 mps 766 mmHg 60%
    09:00 +30°C° 0 mm 1 mps 766 mmHg 55%
    10:00 +32°C° 0 mm 1 mps 766 mmHg 50%
    11:00 +33°C° 0 mm 1 mps 765 mmHg 48%
    12:00 +34°C° 0 mm 1 mps 765 mmHg 46%
    13:00 +34°C° 0 mm 1 mps 765 mmHg 43%
    14:00 +35°C° 0 mm 2 mps 764 mmHg 45%
    15:00 +35°C° 0 mm 2 mps 764 mmHg 46%
    16:00 +35°C° 0 mm 2 mps 764 mmHg 47%
    17:00 +34°C° 0.1 mm 2 mps 763 mmHg 52%
    18:00 +31°C° 0.1 mm 2 mps 763 mmHg 57%
    19:00 +30°C° 0.1 mm 2 mps 763 mmHg 61%
    20:00 +29°C° 0.4 mm 3 mps 763 mmHg 64%
    21:00 +28°C° 0.4 mm 4 mps 764 mmHg 68%
    22:00 +27°C° 0.4 mm 5 mps 764 mmHg 71%
    23:00 +27°C° 0.1 mm 3 mps 764 mmHg 71%

    29 June, Saturday

    Time Temperature Precipitation Wind Pressure Humidity
    00:00 +26°C° 0.1 mm 2 mps 764 mmHg 72%
    01:00 +26°C° 0.1 mm 1 mps 763 mmHg 72%
    02:00 +26°C° 0 mm 1 mps 763 mmHg 73%
    03:00 +25°C° 0 mm 1 mps 763 mmHg 73%
    04:00 +25°C° 0 mm 1 mps 763 mmHg 73%
    05:00 +26°C° 0 mm 2 mps 763 mmHg 72%
    06:00 +26°C° 0 mm 2 mps 763 mmHg 71%
    07:00 +27°C° 0 mm 2 mps 763 mmHg 70%
    08:00 +28°C° 0 mm 2 mps 763 mmHg 66%
    09:00 +30°C° 0 mm 2 mps 763 mmHg 61%
    10:00 +32°C° 0 mm 2 mps 763 mmHg 57%
    11:00 +34°C° 0 mm 2 mps 762 mmHg 54%
    12:00 +34°C° 0 mm 2 mps 762 mmHg 51%
    13:00 +35°C° 0 mm 2 mps 762 mmHg 48%
    14:00 +35°C° 0 mm 3 mps 761 mmHg 48%
    15:00 +36°C° 0 mm 3 mps 761 mmHg 48%
    16:00 +36°C° 0 mm 3 mps 760 mmHg 48%
    17:00 +35°C° 0 mm 3 mps 760 mmHg 51%
    18:00 +34°C° 0 mm 3 mps 759 mmHg 54%
    19:00 +32°C° 0 mm 2 mps 759 mmHg 57%
    20:00 +31°C° 0.2 mm 2 mps 759 mmHg 58%
    21:00 +30°C° 0.2 mm 2 mps 759 mmHg 60%
    22:00 +29°C° 0.2 mm 2 mps 759 mmHg 61%
    23:00 +29°C° 0.1 mm 3 mps 759 mmHg 62%

    30 June, Sunday

    Time Temperature Precipitation Wind Pressure Humidity
    00:00 +28°C° 0.1 mm 3 mps 759 mmHg 63%
    01:00 +28°C° 0.1 mm 3 mps 758 mmHg 64%
    02:00 +28°C° 0.1 mm 4 mps 758 mmHg 65%
    03:00 +28°C° 0.1 mm 4 mps 758 mmHg 65%
    04:00 +27°C° 0.1 mm 5 mps 757 mmHg 65%
    05:00 +28°C° 0 mm 5 mps 757 mmHg 65%
    06:00 +28°C° 0 mm 5 mps 756 mmHg 65%
    07:00 +28°C° 0 mm 5 mps 756 mmHg 65%
    08:00 +30°C° 0 mm 6 mps 756 mmHg 62%
    09:00 +32°C° 0 mm 6 mps 756 mmHg 59%
    10:00 +34°C° 0 mm 7 mps 755 mmHg 56%
    11:00 +34°C° 0.3 mm 7 mps 755 mmHg 57%
    12:00 +34°C° 0.3 mm 8 mps 755 mmHg 58%
    13:00 +34°C° 0.3 mm 8 mps 754 mmHg 58%
    14:00 +34°C° 0.2 mm 7 mps 754 mmHg 55%
    15:00 +34°C° 0.2 mm 7 mps 754 mmHg 51%
    16:00 +35°C° 0.2 mm 6 mps 753 mmHg 47%
    17:00 +32°C° 0 mm 7 mps 754 mmHg 50%
    18:00 +28°C° 0 mm 7 mps 755 mmHg 54%
    19:00 +26°C° 0 mm 7 mps 755 mmHg 57%
    20:00 +23°C° 0 mm 8 mps 756 mmHg 56%
    21:00 +21°C° 0 mm 8 mps 757 mmHg 56%
    22:00 +20°C° 0 mm 8 mps 758 mmHg 55%
    23:00 +18°C° 0 mm 7 mps 758 mmHg 56%
    Show more